カタログに戻る

FENGYUN 1C DEB

運用中PO
NORAD 37595·DEBRIS·🇨🇳 China

打ち上げ May 10, 1999 から Taiyuan Satellite Launch Center

Loading…

次のパス (今後24時間)

TLE

最新Source: Space-Track

元期: Sep 12, 2026, 11:47 UTC

1 37595U 99025EKP 26255.49112561  .00022560  00000-0  25302-2 0  9992
2 37595  99.0392 143.8964 0015686 226.3849 261.3779 14.86731780666534

AllMySatでFENGYUN 1C DEBをリアルタイム追跡

Download on the App Store